Seattle Boeing, WA

10:19 AM PDT on May 29, 2020 (GMT -0700)
Boeing Field-King County International

Weather History for KBFI - October, 2019

Change the Weather History Date:

Saturday, October 19, 2019

  Actual Average Record
Temperature  
Mean Temperature 50 °F -  
Max Temperature 53 °F 58 °F 73 °F (2014)
Min Temperature 45 °F 44 °F 28 °F (1949)
Degree Days  
Heating Degree Days 16    
Moisture  
Dew Point 45 °F    
Average Humidity 85    
Maximum Humidity 93    
Minimum Humidity 74    
Precipitation  
Precipitation 0.36 in - - ()
Sea Level Pressure  
Sea Level Pressure 29.81 in    
Wind  
Wind Speed 5 mph (SE)    
Max Wind Speed 9 mph    
Max Gust Speed -    
Visibility 8 miles    
Events Rain    
Averages and records for this station are not official NWS values.
T = Trace of Precipitation, MM = Missing Value Source: NWS Daily Summary

Daily Weather History Graph

Daily Weather History Graph

Search for Another Location

Airport or City:

Astronomy

Oct. 19, 2019 Rise Set
Actual Time 7:33 AM PDT 6:13 PM PDT
Civil Twilight 7:02 AM PDT 6:45 PM PDT
Nautical Twilight 6:26 AM PDT 7:20 PM PDT
Astronomical Twilight 5:50 AM PDT 7:56 PM PDT
Moon 10:10 PM PDT (10/19) 1:29 PM PDT (10/19)
Length of Visible Light 11h 42m
Length of Day
10h 40m
Waning Gibbous, 68% of the Moon is Illuminated
Oct 19
Waning Gibbous
Oct 21
Last Quarter
Oct 27
New
Nov 4
First Quarter
Nov 12
Full

Hourly Weather History & Observations

Time (PDT) Temp. Windchill Dew Point Humidity Pressure Visibility Wind Dir Wind Speed Gust Speed Precip Events Conditions
12:10 AM 50.0 °F - 46.9 °F 89% 29.76 in 4.0 mi SE 3.5 mph - 0.04 in Rain Light Rain
12:49 AM 50.0 °F - 46.4 °F 87% 29.74 in 8.0 mi ESE 5.8 mph - 0.11 in Rain Light Rain
12:53 AM 50.0 °F - 46.9 °F 89% 29.73 in 9.0 mi ESE 6.9 mph - 0.11 in Rain Light Rain
1:31 AM 50.0 °F - 46.0 °F 86% 29.70 in 9.0 mi ESE 5.8 mph - 0.01 in Rain Light Rain
1:53 AM 50.0 °F - 46.0 °F 86% 29.70 in 5.0 mi ESE 4.6 mph - 0.02 in Rain Light Rain
2:53 AM 50.0 °F - 46.0 °F 86% 29.65 in 10.0 mi ENE 3.5 mph - 0.00 in Rain Light Rain
3:53 AM 48.9 °F - 46.0 °F 90% 29.63 in 7.0 mi Calm Calm - 0.01 in Rain Light Rain
4:53 AM 48.0 °F - 46.0 °F 93% 29.61 in 4.0 mi SE 9.2 mph - 0.12 in Rain Rain
5:53 AM 46.9 °F - 44.1 °F 90% 29.61 in 7.0 mi Calm Calm - 0.02 in Rain Light Rain
6:53 AM 46.9 °F - 44.1 °F 90% 29.62 in 9.0 mi Calm Calm - 0.06 in Rain Light Rain
7:53 AM 46.0 °F 43.9 °F 43.0 °F 89% 29.66 in 10.0 mi SE 4.6 mph - 0.00 in Rain Light Rain
8:53 AM 46.0 °F 43.1 °F 43.0 °F 89% 29.69 in 8.0 mi SE 5.8 mph - 0.00 in Rain Light Rain
9:26 AM 46.9 °F - 44.1 °F 90% 29.70 in 5.0 mi SE 5.8 mph - 0.00 in Rain Light Rain
9:53 AM 46.9 °F - 44.1 °F 90% 29.72 in 5.0 mi SE 6.9 mph - 0.00 in Rain Light Rain
10:23 AM 46.9 °F - 44.1 °F 90% 29.73 in 6.0 mi SE 6.9 mph - 0.00 in Rain Light Rain
10:53 AM 46.9 °F - 44.1 °F 90% 29.74 in 6.0 mi SSE 8.1 mph - 0.00 in   Overcast
11:53 AM 48.0 °F - 45.0 °F 89% 29.77 in 7.0 mi SE 6.9 mph - 0.00 in Rain Light Rain
12:53 PM 48.0 °F - 46.0 °F 93% 29.80 in 5.0 mi SE 5.8 mph - 0.02 in Rain Light Rain
1:53 PM 51.1 °F - 46.9 °F 86% 29.81 in 10.0 mi SSE 5.8 mph - 0.00 in   Overcast
2:53 PM 52.0 °F - 46.0 °F 80% 29.83 in 10.0 mi ESE 6.9 mph - N/A   Overcast
3:02 PM 52.0 °F - 46.0 °F 80% 29.83 in 10.0 mi ESE 6.9 mph - N/A   Overcast
3:53 PM 52.0 °F - 45.0 °F 77% 29.85 in 10.0 mi ESE 8.1 mph - N/A   Overcast
4:00 PM 53.1 °F - 45.0 °F 74% 29.85 in 10.0 mi East 6.9 mph - N/A   Overcast
4:53 PM 53.1 °F - 46.0 °F 77% 29.86 in 10.0 mi SE 4.6 mph - N/A   Mostly Cloudy
5:00 PM 53.1 °F - 46.0 °F 77% 29.87 in 10.0 mi ENE 4.6 mph - N/A   Mostly Cloudy
5:53 PM 53.1 °F - 46.0 °F 77% 29.89 in 10.0 mi Calm Calm - N/A   Scattered Clouds
6:46 PM 51.1 °F - 46.0 °F 83% 29.92 in 10.0 mi NE 3.5 mph - N/A   Scattered Clouds
6:53 PM 50.0 °F - 46.0 °F 86% 29.93 in 10.0 mi Variable 3.5 mph - N/A   Scattered Clouds
7:53 PM 48.9 °F - 45.0 °F 86% 29.96 in 10.0 mi SSE 4.6 mph - N/A   Mostly Cloudy
8:53 PM 50.0 °F - 44.1 °F 80% 29.99 in 10.0 mi SE 6.9 mph - N/A   Partly Cloudy
9:29 PM 50.0 °F - 44.1 °F 80% 30.00 in 10.0 mi SE 8.1 mph - N/A   Mostly Cloudy
9:36 PM 48.9 °F - 43.0 °F 80% 30.00 in 10.0 mi SE 8.1 mph - N/A   Partly Cloudy
9:53 PM 48.0 °F - 43.0 °F 83% 30.01 in 10.0 mi SE 6.9 mph - N/A   Partly Cloudy
10:53 PM 46.9 °F - 42.1 °F 83% 30.04 in 10.0 mi SE 9.2 mph - N/A   Partly Cloudy
11:53 PM 45.0 °F 40.1 °F 41.0 °F 86% 30.05 in 10.0 mi SE 9.2 mph - N/A   Clear